User: anonymous   Login
Location: Unspecified
(0.0000°N, 0.0000°E)
Time: 22:28:00
(UTC+00:00)
Language:

GLOBALSTAR M092 - Orbit

View from above orbital plane
View from above orbital plane
View from above satellite
View from above satellite

Ground track
Ground track

The orbit is defined by the following mean orbital elements,

1 38043U          26145.52321186 +.00000000 +00000-0 -62533-4 0 00001
2 38043  52.0066 133.8835 0000241  45.5957 107.4835 12.62266873    03
Epoch (UTC): 25 May 2026 12:33:25
Eccentricity: 0.0000241
inclination: 52.0066°
perigee height: 1413 km
apogee height: 1414 km
right ascension of ascending node: 133.8835°
argument of perigee: 45.5957°
revolutions per day: 12.62266873
mean anomaly at epoch: 107.4835°

The dashed part of the orbit path shows where the satellite is in the earth's shadow,  

DLR